[[{"header":{"parameterUnit":"m.s-1","parameterCategory":1,"la1":30.2991,"la2":30.254,"lo1":-89.0895,"lo2":-89.0444,"dy":0.0017,"dx":0.0017,"nx":28,"ny":28,"refTime":"2025-12-04T03:00:00:Z","depth":0,"parameterNumber":2,"parameterNumberName":"U-component_of_WINDS"},"data":[0,0,0,0,0,0,0,0,0,0,0,0,0,0,0,0,0,0,0,0,0,0,0,0,0,0,0,0,0,0,0,0,0,0,0,0,0,0,0,0,0,0,0,0,0,0,0,0,0,0,0,0,0,0,0,0,0,0,-6.0059,-6.006,0,-6.0188,-6.0189,-6.0191,-6.0109,-6.0105,-6.0101,-6.0097,-6.0221,-6.0228,-6.0235,0,0,0,0,0,0,0,0,0,0,0,0,0,-5.9733,-5.9739,-6.0059,-6.0061,-6.0062,-6.0187,-6.0189,-6.0191,-6.0109,-6.0105,-6.01,-6.0096,-6.0219,-6.0227,-6.0235,0,0,0,0,0,0,0,0,0,0,0,0,0,-5.9869,-5.9741,-6.0059,-6.0037,-6.0036,-6.0187,-6.0189,-6.0191,-6.011,-6.0104,-6.0099,-6.0093,-6.0216,-6.0226,-6.0236,-6.0414,0,0,-6.0268,-6.0272,0,0,0,0,0,0,0,0,-5.9861,-5.9881,-6.0038,-6.0039,-6.0038,-6.0126,-6.0119,-6.0266,-6.0112,-6.0082,-6.0097,-6.0091,-6.0194,-6.0206,-6.0242,-6.042,-6.0425,-6.0269,-6.0275,-6.0279,-6.0282,0,0,0,0,0,0,0,-5.9852,-5.9875,-6.011,-6.0041,-6.0041,-6.0017,-6.003,-6.0147,-6.0168,-6.0084,-6.0078,-6.0095,-6.0193,-6.0232,-6.0244,-6.0427,-6.0268,-6.0278,-6.0284,-6.0288,-6.0753,-6.0759,0,0,0,0,0,0,-5.9846,-5.9868,-6.0105,-6.0113,-5.9934,-6.0028,-6.0042,-6.0104,-6.0167,-6.0171,-6.01,-6.0091,-6.0218,-6.0232,-6.0248,-6.0459,-6.0279,-6.0289,-6.0295,-6.0747,-6.0755,-6.0761,0,0,0,0,0,0,-5.9839,-5.9868,-6.01,-5.9989,-6.0017,-6.004,-6.0109,-6.0109,-6.0149,-6.0179,-6.0181,-6.0137,-6.0214,-6.0234,-6.0373,-6.0462,-6.0294,-6.0303,-6.074,-6.0749,-6.0758,-6.0883,0,0,0,0,0,0,-5.983,-5.9866,-5.9936,-5.9992,-6.0023,-6.0227,-6.0114,-6.0116,-6.0168,-6.0157,-6.0214,-6.0218,-6.0211,-6.0358,-6.0384,-6.0473,-6.0311,-6.0732,-6.0744,-6.0755,-6.0871,-6.0895,-6.0916,0,0,0,0,0,-5.9819,-5.9965,-5.994,-5.9969,-6.0112,-6.0232,-6.025,-6.024,-6.0175,-6.0244,-6.0263,-6.0216,-6.0448,-6.0373,-6.0401,-6.0495,-6.0726,-6.0741,-6.0754,-6.0861,-6.089,-6.0915,0,0,0,0,0,0,-5.9917,-5.9972,-5.9945,-6.0114,-6.0169,-6.0218,-6.0305,-6.0272,-6.0345,-6.0332,-6.0314,-6.0328,-6.0474,-6.0498,-6.0414,-6.0668,-6.0576,-6.0597,-6.0648,-6.0676,-6.0699,-6.069,-6.0319,0,0,0,0,0,-5.9959,-6.0055,-6.0096,-6.0241,-6.027,-6.0283,-6.0335,-6.0323,-6.0378,-6.04,-6.0429,-6.0482,-6.0566,-6.0622,-6.0702,-6.0873,-6.0883,-6.0951,-6.0974,-6.0992,-6.101,-6.11,-6.113,-6.0807,-6.0807,-6.0807,0,0,-6.0045,-6.0087,-6.0148,-6.0262,-6.0303,-6.0399,-6.0303,-6.041,-6.048,-6.0415,-6.055,-6.0572,-6.063,-6.0786,-6.0856,-6.081,-6.1101,-6.101,-6.1024,-6.1032,-6.1117,-6.1148,-6.1175,-6.0817,-6.0815,-6.0813,0,0,-6.0252,-6.0295,-6.0419,-6.0463,-6.0527,-6.0535,-6.0564,-6.0618,-6.0631,-6.0766,-6.0719,-6.08,-6.0947,-6.099,-6.103,-6.1251,-6.121,-6.1277,-6.1395,-6.1483,-6.1509,-6.1531,-6.1609,-6.1637,-6.1294,-6.1295,-6.1295,0,-6.0351,-6.0498,-6.0487,-6.0598,-6.0647,-6.0595,-6.0719,-6.0761,-6.0847,-6.0881,-6.0829,-6.1011,-6.1046,-6.121,-6.1264,-6.1299,-6.133,-6.1271,-6.1506,-6.1529,-6.1549,-6.1623,-6.1652,-6.1302,-6.1301,-6.1301,-6.13,0,-6.0615,-6.0717,-6.081,-6.0897,-6.0957,-6.1074,-6.1077,-6.1138,-6.112,-6.1132,-6.1268,-6.1308,-6.1394,-6.1431,-6.1414,-6.1592,-6.1562,-6.1509,-6.1416,-6.1588,-6.1657,-6.1685,-6.1313,-6.1311,-6.1308,-6.1306,0,0,-6.089,-6.0969,-6.1003,-6.1041,-6.1107,-6.1184,-6.1296,-6.1382,-6.1435,-6.1495,-6.1587,-6.1711,-6.1662,-6.1708,-6.1694,-6.1772,-6.1942,-6.1708,-6.1709,-6.175,-6.2139,-6.2178,-6.2212,-6.1915,-6.192,-6.1924,-6.2133,0,-6.11,-6.1301,-6.1293,-6.1479,-6.1571,-6.1521,-6.1618,-6.1668,-6.1681,-6.1758,-6.1771,-6.1859,-6.1788,-6.1815,-6.189,-6.1906,-6.202,-6.189,-6.1998,-6.2002,-6.1986,-6.2248,-6.2291,-6.2486,-6.216,-6.2165,-6.2168,0,-6.1374,-6.1446,-6.1642,-6.1692,-6.1731,-6.1819,-6.1896,-6.1972,-6.2025,-6.2029,-6.208,-6.2053,-6.2163,-6.2067,-6.2217,-6.2129,-6.2172,-6.2186,-6.2193,-6.2203,-6.2096,-6.2264,-6.2549,-6.2578,-6.2211,-6.2207,-6.2204,0,-6.1554,-6.1699,-6.1834,-6.1868,-6.1931,-6.1994,-6.2022,-6.207,-6.2122,-6.2188,-6.222,-6.2297,-6.234,-6.2398,-6.2391,-6.2322,-6.2543,-6.2447,-6.2547,-6.2547,-6.2596,-6.2593,-6.2892,-6.2624,-6.2624,-6.2623,-6.2623,0,-6.179,-6.1912,-6.1916,-6.2,-6.2133,-6.212,-6.2251,-6.2272,-6.2315,-6.2398,-6.2358,-6.2437,-6.2424,-6.2501,-6.2496,-6.262,-6.2639,-6.2643,-6.264,-6.2647,-6.2646,-6.2675,-6.2661,-6.2631,-6.2629,-6.2628,-6.2626,0,-6.2014,-6.2023,-6.2167,-6.2214,-6.2229,-6.2325,-6.2364,-6.2441,-6.245,-6.2556,-6.258,-6.2593,-6.2682,-6.2681,-6.2782,-6.2778,-6.293,-6.2912,-6.2913,-6.291,-6.301,-6.3,-6.3337,-6.3379,-6.3085,-6.3087,-6.309,0,-6.2165,-6.2258,-6.2315,-6.237,-6.2403,-6.2492,-6.2544,-6.2534,-6.259,-6.2656,-6.2725,-6.281,-6.2879,-6.3023,-6.3039,-6.3116,-6.3098,-6.3211,-6.3109,-6.3113,-6.3099,-6.3094,-6.3102,-6.3231,-6.3234,-6.3237,-6.3239,0,-6.2431,-6.243,-6.251,-6.259,-6.2655,-6.2717,-6.2774,-6.282,-6.2815,-6.288,-6.2972,-6.3025,-6.3128,-6.3213,-6.3286,-6.3311,-6.3274,-6.3271,-6.3298,-6.3306,-6.3303,-6.3305,-6.2967,-6.3263,-6.3261,-6.3259,-6.3258,-6.3257,-6.2623,-6.2702,-6.2755,-6.2844,-6.2886,-6.294,-6.3015,-6.3033,-6.3111,-6.3196,-6.3184,-6.3286,-6.3333,-6.3428,-6.3459,-6.3536,-6.3496,-6.3536,-6.3546,-6.3556,-6.3567,-6.3291,-6.355,-6.3549,-6.3548,-6.3548,-6.3547,0,-6.2886,-6.2917,-6.3,-6.3082,-6.3151,-6.3112,-6.3172,-6.3231,-6.3323,-6.3372,-6.344,-6.3544,-6.3625,-6.3648,-6.3725,-6.3783,-6.3767,-6.3803,-6.3799,-6.3805,-6.3598,-6.3567,-6.3814,-6.3814,-6.3814,-6.3814,-6.3814,-6.3814,-6.3031,-6.3163,-6.3168,-6.3319,-6.3348,-6.345,-6.3488,-6.3536,-6.3574,-6.3694,-6.3762,-6.3777,-6.3814,-6.3894,-6.3965,-6.3969,-6.3999,-6.4042,-6.4039,-6.3846,-6.382,-6.3794,-6.3764,-6.4049,-6.4049,-6.4239,-6.4241,-6.4242]},{"header":{"parameterUnit":"m.s-1","parameterCategory":1,"la1":30.2991,"la2":30.254,"lo1":-89.0895,"lo2":-89.0444,"dy":0.0017,"dx":0.0017,"nx":28,"ny":28,"refTime":"2025-12-04T03:00:00:Z","depth":0,"parameterNumber":3,"parameterNumberName":"V-component_of_WINDS"},"data":[0,0,0,0,0,0,0,0,0,0,0,0,0,0,0,0,0,0,0,0,0,0,0,0,0,0,0,0,0,0,0,0,0,0,0,0,0,0,0,0,0,0,0,0,0,0,0,0,0,0,0,0,0,0,0,0,0,0,-5.805,-5.8052,0,-5.8153,-5.8154,-5.8155,-5.8059,-5.8055,-5.8051,-5.8048,-5.8152,-5.8158,-5.8165,0,0,0,0,0,0,0,0,0,0,0,0,0,-5.777,-5.7776,-5.805,-5.8052,-5.8053,-5.8153,-5.8154,-5.8156,-5.806,-5.8055,-5.805,-5.8046,-5.815,-5.8158,-5.8165,0,0,0,0,0,0,0,0,0,0,0,0,0,-5.7884,-5.7777,-5.805,-5.8017,-5.8015,-5.8153,-5.8154,-5.8156,-5.8061,-5.8055,-5.8049,-5.8044,-5.8148,-5.8157,-5.8166,-5.8341,0,0,-5.8195,-5.82,0,0,0,0,0,0,0,0,-5.7878,-5.7894,-5.8021,-5.802,-5.8018,-5.8087,-5.8093,-5.8218,-5.8062,-5.8043,-5.8048,-5.8041,-5.8135,-5.8145,-5.8177,-5.8346,-5.835,-5.8196,-5.8202,-5.8206,-5.8209,0,0,0,0,0,0,0,-5.787,-5.789,-5.8091,-5.8023,-5.8021,-5.7997,-5.8007,-5.8117,-5.8121,-5.8045,-5.8038,-5.8051,-5.8133,-5.8168,-5.8179,-5.8352,-5.8196,-5.8205,-5.821,-5.8214,-5.8669,-5.8675,0,0,0,0,0,0,-5.7866,-5.7884,-5.8088,-5.8094,-5.7932,-5.8007,-5.8017,-5.8071,-5.8119,-5.8121,-5.8056,-5.8047,-5.8155,-5.8168,-5.8182,-5.839,-5.8206,-5.8215,-5.8221,-5.8663,-5.867,-5.8677,0,0,0,0,0,0,-5.786,-5.7885,-5.8083,-5.7987,-5.801,-5.8017,-5.8078,-5.8076,-5.8111,-5.8128,-5.8128,-5.8092,-5.8151,-5.8169,-5.8302,-5.8393,-5.8219,-5.8228,-5.8655,-5.8665,-5.8674,-5.8808,0,0,0,0,0,0,-5.7852,-5.7883,-5.795,-5.7989,-5.8016,-5.8203,-5.8084,-5.8082,-5.8128,-5.8116,-5.8161,-5.8163,-5.8148,-5.8289,-5.8312,-5.8403,-5.8236,-5.8647,-5.8659,-5.8671,-5.8795,-5.8821,-5.8843,0,0,0,0,0,-5.7843,-5.7984,-5.7954,-5.7979,-5.81,-5.8208,-5.8223,-5.8203,-5.8135,-5.8203,-5.8213,-5.8161,-5.8379,-5.8303,-5.8328,-5.8424,-5.8641,-5.8656,-5.867,-5.8785,-5.8816,-5.8842,0,0,0,0,0,0,-5.7955,-5.7988,-5.7956,-5.8114,-5.8159,-5.8192,-5.8276,-5.8237,-5.8301,-5.8288,-5.826,-5.8271,-5.8412,-5.8431,-5.8346,-5.8595,-5.8499,-5.8519,-5.8578,-5.8607,-5.8631,-5.8623,-5.8243,0,0,0,0,0,-5.7998,-5.8084,-5.8108,-5.8245,-5.8269,-5.8269,-5.8315,-5.8296,-5.8341,-5.836,-5.838,-5.8426,-5.8504,-5.8557,-5.863,-5.8797,-5.8806,-5.8875,-5.8899,-5.8918,-5.8936,-5.9026,-5.9057,-5.8724,-5.8724,-5.8724,0,0,-5.8088,-5.8117,-5.8173,-5.8268,-5.8301,-5.839,-5.8286,-5.8384,-5.8449,-5.8374,-5.8502,-5.8519,-5.8568,-5.8719,-5.8787,-5.8739,-5.903,-5.8936,-5.8951,-5.8959,-5.9044,-5.9075,-5.9103,-5.8734,-5.8732,-5.873,0,0,-5.8298,-5.8328,-5.8446,-5.8481,-5.8531,-5.853,-5.8558,-5.8597,-5.8606,-5.8733,-5.8679,-5.8756,-5.8892,-5.8929,-5.8966,-5.9189,-5.9144,-5.9214,-5.9337,-5.9425,-5.9452,-5.9475,-5.9555,-5.9584,-5.9231,-5.9232,-5.9232,0,-5.8403,-5.8535,-5.8511,-5.8614,-5.8657,-5.8594,-5.8712,-5.8747,-5.8819,-5.8851,-5.8796,-5.8965,-5.8994,-5.9153,-5.9208,-5.9239,-5.9271,-5.9209,-5.945,-5.9473,-5.9494,-5.957,-5.96,-5.924,-5.9239,-5.9238,-5.9237,0,-5.8663,-5.8755,-5.8844,-5.8916,-5.8969,-5.9079,-5.9071,-5.9128,-5.9104,-5.9108,-5.9239,-5.9271,-5.9349,-5.9385,-5.9363,-5.9542,-5.9511,-5.9454,-5.9357,-5.9534,-5.9605,-5.9634,-5.9252,-5.9249,-5.9246,-5.9244,0,0,-5.8947,-5.9003,-5.9036,-5.9068,-5.9119,-5.919,-5.9297,-5.9374,-5.9424,-5.9475,-5.9564,-5.9681,-5.9628,-5.967,-5.9651,-5.9728,-5.9904,-5.9661,-5.9662,-5.9706,-6.0103,-6.0147,-6.0181,-5.9873,-5.9879,-5.9883,-6.0099,0,-5.9158,-5.9345,-5.9326,-5.9503,-5.9588,-5.9529,-5.9622,-5.9663,-5.967,-5.9743,-5.975,-5.9833,-5.9757,-5.9782,-5.9856,-5.9867,-5.9983,-5.9851,-5.9956,-5.996,-5.9947,-6.0218,-6.0264,-6.0466,-6.0127,-6.0132,-6.0135,0,-5.9431,-5.9492,-5.9679,-5.9717,-5.9752,-5.9836,-5.9905,-5.9975,-6.0021,-6.002,-6.0067,-6.0034,-6.0142,-6.0042,-6.0189,-6.01,-6.0141,-6.0153,-6.016,-6.017,-6.0059,-6.0236,-6.053,-6.0561,-6.0178,-6.0175,-6.0172,0,-5.962,-5.9749,-5.9878,-5.9907,-5.9954,-6.0015,-6.0037,-6.0077,-6.0125,-6.0185,-6.0215,-6.0287,-6.0327,-6.0383,-6.037,-6.0299,-6.0521,-6.042,-6.0524,-6.0524,-6.0574,-6.0571,-6.0881,-6.06,-6.0599,-6.0599,-6.0598,0,-5.9859,-5.9975,-5.9963,-6.0042,-6.0171,-6.0147,-6.0275,-6.029,-6.0326,-6.0406,-6.0358,-6.0435,-6.0413,-6.0489,-6.0479,-6.0603,-6.0621,-6.0623,-6.062,-6.0629,-6.0628,-6.0656,-6.0642,-6.0607,-6.0605,-6.0604,-6.0602,0,-6.0092,-6.0089,-6.0225,-6.0259,-6.027,-6.0363,-6.0392,-6.0466,-6.0469,-6.0571,-6.0594,-6.0598,-6.0685,-6.0678,-6.0774,-6.0768,-6.0921,-6.0901,-6.0907,-6.0902,-6.1007,-6.0997,-6.1345,-6.139,-6.108,-6.1083,-6.1085,0,-6.0246,-6.0334,-6.0377,-6.0428,-6.0455,-6.0537,-6.0585,-6.0565,-6.0618,-6.0676,-6.0743,-6.0825,-6.089,-6.1031,-6.1042,-6.1116,-6.1097,-6.1214,-6.1108,-6.1114,-6.11,-6.1095,-6.1104,-6.1235,-6.1239,-6.1242,-6.1244,0,-6.0518,-6.0512,-6.0584,-6.0656,-6.0715,-6.077,-6.082,-6.0865,-6.0849,-6.091,-6.0998,-6.1049,-6.1148,-6.123,-6.13,-6.1322,-6.1282,-6.1277,-6.1305,-6.1315,-6.1316,-6.1318,-6.0964,-6.1269,-6.1267,-6.1265,-6.1264,-6.1263,-6.0717,-6.0792,-6.0835,-6.0917,-6.0952,-6.1,-6.1072,-6.1084,-6.1157,-6.1236,-6.1219,-6.1319,-6.1361,-6.1451,-6.1481,-6.1557,-6.1515,-6.1556,-6.1566,-6.1577,-6.1589,-6.1303,-6.157,-6.1569,-6.1569,-6.1568,-6.1567,0,-6.0987,-6.1012,-6.1087,-6.1159,-6.1223,-6.1179,-6.1232,-6.1288,-6.1376,-6.142,-6.1484,-6.1585,-6.1665,-6.1683,-6.1758,-6.1817,-6.18,-6.1837,-6.1833,-6.1839,-6.1622,-6.1591,-6.185,-6.185,-6.185,-6.185,-6.185,-6.1849,-6.1136,-6.1262,-6.1261,-6.1404,-6.1427,-6.1524,-6.1558,-6.1602,-6.1637,-6.1752,-6.1818,-6.1829,-6.1862,-6.194,-6.201,-6.2013,-6.2044,-6.209,-6.2085,-6.1883,-6.1854,-6.1828,-6.1798,-6.2096,-6.2096,-6.2296,-6.2298,-6.2299]}]]